Weather History for KHRJ - October, 2012

Change the Weather History Date:

Monday, October 15, 2012

  Actual Average Record
Temperature  
Mean Temperature 66 °F -  
Max Temperature 77 °F 76 °F 87 °F (1985)
Min Temperature 55 °F 47 °F 31 °F (1979)
Cooling Degree Days 1    
Growing Degree Days 16 (Base 50)    
Moisture  
Dew Point 61 °F    
Average Humidity 87    
Maximum Humidity 100    
Minimum Humidity 57    
Precipitation  
Precipitation 0.13 in - - ()
Sea Level Pressure  
Sea Level Pressure 29.87 in    
Wind  
Wind Speed 2 mph (SW)    
Max Wind Speed 9 mph    
Max Gust Speed -    
Visibility 10 miles    
Events Rain    
Averages and records for this station are not official NWS values.
T = Trace of Precipitation, MM = Missing Value Source: NWS Daily Summary

Daily Weather History Graph

Daily Weather History Graph

Search for Another Location

Airport or City:

Trip Planner

Search our weather history database for the weather conditions in past years. The results will help you decide how hot, cold, wet, or windy it might be!

Date:

Astronomy

Oct. 15, 2012 Rise Set
Actual Time 7:21 AM EDT 6:39 PM EDT
Civil Twilight 6:55 AM EDT 7:04 PM EDT
Nautical Twilight 6:26 AM EDT 7:34 PM EDT
Astronomical Twilight 5:56 AM EDT 8:03 PM EDT
Moon 7:27 AM EDT (10/15) 6:40 PM EDT (10/15)
Length of Visible Light 12h 08m
Length of Day
11h 17m
New Moon, 0% of the Moon is Illuminated
Oct 15
New Moon
Oct 21
First Quarter
Oct 29
Full
Nov 6
Last Quarter
Nov 13
New

Hourly Weather History & Observations

Time (EDT) Temp. Dew Point Humidity Pressure Visibility Wind Dir Wind Speed Gust Speed Precip Events Conditions
12:15 AM 60.8 °F 59.0 °F 94% 30.04 in 10.0 mi SSE 4.6 mph - N/A   Clear
12:35 AM 60.8 °F 57.2 °F 88% 30.03 in 10.0 mi South 3.5 mph - N/A   Clear
1:15 AM 59.0 °F 59.0 °F 100% 30.04 in 10.0 mi Calm Calm - N/A   Clear
1:35 AM 59.0 °F 59.0 °F 100% 30.04 in 10.0 mi Calm Calm - N/A   Clear
1:55 AM 59.0 °F 57.2 °F 94% 30.03 in 10.0 mi Calm Calm - N/A   Clear
2:15 AM 59.0 °F 59.0 °F 100% 30.02 in 10.0 mi Calm Calm - N/A   Scattered Clouds
2:35 AM 59.0 °F 59.0 °F 100% 30.01 in 10.0 mi Calm Calm - N/A   Overcast
2:55 AM 59.0 °F 59.0 °F 100% 29.99 in 10.0 mi SE 3.5 mph - N/A   Scattered Clouds
3:15 AM 59.0 °F 59.0 °F 100% 29.99 in 10.0 mi Calm Calm - N/A   Scattered Clouds
3:35 AM 59.0 °F 59.0 °F 100% 29.98 in 10.0 mi Calm Calm - N/A   Scattered Clouds
3:55 AM 59.0 °F 59.0 °F 100% 29.97 in 10.0 mi Calm Calm - N/A   Scattered Clouds
4:15 AM 59.0 °F 59.0 °F 100% 29.96 in 10.0 mi ESE 4.6 mph - N/A   Clear
4:35 AM 60.8 °F 59.0 °F 94% 29.96 in 10.0 mi Calm Calm - N/A   Clear
4:55 AM 59.0 °F 59.0 °F 100% 29.96 in 10.0 mi Calm Calm - N/A   Clear
5:15 AM 59.0 °F 59.0 °F 100% 29.95 in 10.0 mi Calm Calm - N/A   Clear
5:35 AM 59.0 °F 59.0 °F 100% 29.95 in 10.0 mi Calm Calm - N/A   Clear
5:55 AM 59.0 °F 59.0 °F 100% 29.95 in 10.0 mi Calm Calm - N/A   Clear
6:15 AM 59.0 °F 59.0 °F 100% 29.94 in 10.0 mi SSE 3.5 mph - N/A   Clear
6:35 AM 59.0 °F 59.0 °F 100% 29.94 in 10.0 mi Calm Calm - N/A   Clear
6:55 AM 59.0 °F 59.0 °F 100% 29.93 in 10.0 mi Calm Calm - N/A   Clear
7:15 AM 59.0 °F 59.0 °F 100% 29.93 in 10.0 mi Calm Calm - N/A   Clear
7:35 AM 59.0 °F 59.0 °F 100% 29.93 in 10.0 mi Calm Calm - N/A   Clear
8:35 AM 60.8 °F 60.8 °F 100% 29.94 in 10.0 mi Calm Calm - N/A   Clear
8:55 AM 60.8 °F 60.8 °F 100% 29.94 in 10.0 mi Calm Calm - N/A   Scattered Clouds
9:35 AM 62.6 °F 60.8 °F 94% 29.94 in 10.0 mi Calm Calm - N/A   Overcast
9:55 AM 62.6 °F 60.8 °F 94% 29.94 in 10.0 mi Calm Calm - N/A   Overcast
10:15 AM 64.4 °F 62.6 °F 94% 29.93 in 10.0 mi South 3.5 mph - N/A   Scattered Clouds
10:55 AM 66.2 °F 64.4 °F 94% 29.91 in 10.0 mi South 4.6 mph - N/A   Mostly Cloudy
11:15 AM 69.8 °F 64.4 °F 83% 29.90 in 10.0 mi SSE 5.8 mph - N/A   Scattered Clouds
11:35 AM 73.4 °F 64.4 °F 73% 29.89 in 10.0 mi SSE 6.9 mph - N/A   Clear
11:55 AM 75.2 °F 64.4 °F 69% 29.88 in 10.0 mi South 9.2 mph - N/A   Clear
12:35 PM 75.2 °F 62.6 °F 65% 29.86 in 10.0 mi SSW 6.9 mph - N/A   Mostly Cloudy
12:55 PM 77.0 °F 60.8 °F 57% 29.84 in 10.0 mi SW 6.9 mph - N/A   Mostly Cloudy
1:15 PM 77.0 °F 62.6 °F 61% 29.81 in 10.0 mi SSW 5.8 mph - N/A   Mostly Cloudy
1:35 PM 77.0 °F 62.6 °F 61% 29.80 in 10.0 mi SW 4.6 mph - N/A   Scattered Clouds
2:15 PM 73.4 °F 64.4 °F 73% 29.80 in 5.0 mi West 5.8 mph - 0.05 in Rain Heavy Rain
2:35 PM 71.6 °F 66.2 °F 83% 29.78 in 10.0 mi SW 3.5 mph - 0.12 in   Scattered Clouds
2:55 PM 71.6 °F 68.0 °F 88% 29.76 in 10.0 mi SSW 3.5 mph - 0.12 in Rain Light Rain
3:15 PM 73.4 °F 69.8 °F 88% 29.75 in 7.0 mi SW 4.6 mph - 0.01 in Rain Light Rain
3:35 PM 73.4 °F 68.0 °F 83% 29.75 in 10.0 mi SW 6.9 mph - 0.01 in   Clear
3:55 PM 73.4 °F 66.2 °F 78% 29.75 in 10.0 mi SW 5.8 mph - 0.01 in   Mostly Cloudy
4:15 PM 73.4 °F 66.2 °F 78% 29.74 in 10.0 mi WSW 3.5 mph - N/A   Mostly Cloudy
4:35 PM 73.4 °F 66.2 °F 78% 29.74 in 10.0 mi SW 4.6 mph - N/A   Mostly Cloudy
4:55 PM 73.4 °F 66.2 °F 78% 29.74 in 10.0 mi Calm Calm - N/A   Mostly Cloudy
5:15 PM 73.4 °F 66.2 °F 78% 29.74 in 10.0 mi SW 5.8 mph - N/A   Scattered Clouds
5:35 PM 73.4 °F 66.2 °F 78% 29.73 in 10.0 mi WSW 3.5 mph - N/A   Scattered Clouds
5:55 PM 73.4 °F 64.4 °F 73% 29.73 in 10.0 mi Calm Calm - N/A   Scattered Clouds
6:15 PM 73.4 °F 64.4 °F 73% 29.73 in 10.0 mi SW 4.6 mph - N/A   Scattered Clouds
6:35 PM 71.6 °F 62.6 °F 73% 29.72 in 10.0 mi WSW 3.5 mph - N/A   Clear
7:15 PM 68.0 °F 64.4 °F 88% 29.74 in 10.0 mi Calm Calm - N/A   Clear
7:35 PM 68.0 °F 64.4 °F 88% 29.74 in 10.0 mi Calm Calm - N/A Rain Light Rain
7:55 PM 68.0 °F 64.4 °F 88% 29.76 in 10.0 mi West 5.8 mph - N/A   Overcast
8:15 PM 68.0 °F 64.4 °F 88% 29.78 in 10.0 mi Calm Calm - N/A   Overcast
8:35 PM 66.2 °F 64.4 °F 94% 29.78 in 10.0 mi Calm Calm - N/A   Overcast
8:55 PM 66.2 °F 64.4 °F 94% 29.78 in 10.0 mi Calm Calm - N/A   Mostly Cloudy
9:15 PM 64.4 °F 64.4 °F 100% 29.79 in 10.0 mi Calm Calm - N/A   Scattered Clouds
9:35 PM 64.4 °F 57.2 °F 77% 29.80 in 10.0 mi WNW 4.6 mph - N/A   Clear
9:55 PM 62.6 °F 53.6 °F 72% 29.81 in 10.0 mi NW 4.6 mph - N/A   Clear
10:15 PM 62.6 °F 51.8 °F 68% 29.82 in 10.0 mi NW 4.6 mph - N/A   Clear
10:35 PM 60.8 °F 50.0 °F 68% 29.83 in 10.0 mi NNW 4.6 mph - N/A   Clear
10:55 PM 59.0 °F 50.0 °F 72% 29.83 in 10.0 mi NNW 3.5 mph - N/A   Clear
11:15 PM 59.0 °F 50.0 °F 72% 29.84 in 10.0 mi Calm Calm - N/A   Clear
11:35 PM 55.4 °F 50.0 °F 82% 29.85 in 10.0 mi Calm Calm - N/A   Clear
11:55 PM 55.4 °F 50.0 °F 82% 29.85 in 10.0 mi Calm Calm - N/A   Clear